TimeCDT,TemperatureF,Dew PointF,Humidity,Sea Level PressureIn,VisibilityMPH,Wind Direction,Wind SpeedMPH,Gust SpeedMPH,PrecipitationIn,Events,Conditions,WindDirDegrees,DateUTC
12:56 AM,75.9,73.0,91,30.12,10.0,NE,8.1,-,N/A,,Scattered Clouds,50,2013-07-16 05:56:00
1:56 AM,75.9,72.0,87,30.12,10.0,ENE,9.2,-,N/A,,Mostly Cloudy,60,2013-07-16 06:56:00
2:10 AM,75.2,71.6,89,30.13,10.0,East,5.8,-,N/A,,Partly Cloudy,80,2013-07-16 07:10:00
2:56 AM,73.9,70.0,87,30.12,10.0,ENE,9.2,-,N/A,,Clear,70,2013-07-16 07:56:00
3:56 AM,73.0,69.1,87,30.11,10.0,NE,6.9,-,N/A,,Clear,40,2013-07-16 08:56:00
4:56 AM,73.9,70.0,87,30.10,10.0,ENE,10.4,-,N/A,,Scattered Clouds,70,2013-07-16 09:56:00
5:09 AM,73.4,69.8,88,30.11,10.0,ENE,9.2,-,N/A,,Mostly Cloudy,70,2013-07-16 10:09:00
5:26 AM,73.4,69.8,88,30.13,10.0,ENE,6.9,-,N/A,,Mostly Cloudy,60,2013-07-16 10:26:00
5:56 AM,73.9,70.0,87,30.12,7.0,ENE,10.4,-,N/A,,Overcast,70,2013-07-16 10:56:00
6:56 AM,75.0,70.0,84,30.14,7.0,ENE,10.4,-,N/A,,Overcast,70,2013-07-16 11:56:00
7:56 AM,75.9,71.1,85,30.15,7.0,ENE,10.4,-,N/A,,Overcast,70,2013-07-16 12:56:00
8:08 AM,78.8,71.6,78,30.16,7.0,ENE,10.4,-,N/A,,Mostly Cloudy,60,2013-07-16 13:08:00
8:56 AM,79.0,71.1,77,30.16,7.0,ENE,13.8,-,N/A,,Overcast,60,2013-07-16 13:56:00
9:56 AM,82.0,71.1,69,30.17,7.0,East,12.7,-,N/A,,Overcast,90,2013-07-16 14:56:00
10:56 AM,82.0,71.1,69,30.18,7.0,East,12.7,-,N/A,,Overcast,90,2013-07-16 15:56:00
11:18 AM,84.2,71.6,66,30.18,7.0,ENE,12.7,-,N/A,,Mostly Cloudy,70,2013-07-16 16:18:00
11:36 AM,82.4,71.6,70,30.18,7.0,East,15.0,18.4,N/A,,Mostly Cloudy,80,2013-07-16 16:36:00
11:56 AM,86.0,72.0,63,30.17,7.0,East,15.0,21.9,N/A,,Mostly Cloudy,90,2013-07-16 16:56:00
12:56 PM,86.0,72.0,63,30.16,7.0,East,13.8,-,N/A,,Mostly Cloudy,80,2013-07-16 17:56:00
1:15 PM,84.2,71.6,66,30.16,7.0,East,16.1,21.9,N/A,,Mostly Cloudy,100,2013-07-16 18:15:00
1:56 PM,88.0,73.0,61,30.15,10.0,East,12.7,21.9,N/A,,Mostly Cloudy,100,2013-07-16 18:56:00
2:09 PM,87.8,71.6,58,30.16,10.0,East,17.3,25.3,N/A,,Mostly Cloudy,100,2013-07-16 19:09:00
2:56 PM,88.0,72.0,59,30.14,10.0,ESE,16.1,24.2,N/A,,Mostly Cloudy,110,2013-07-16 19:56:00
3:56 PM,88.0,72.0,59,30.14,10.0,East,15.0,24.2,N/A,,Mostly Cloudy,100,2013-07-16 20:56:00
4:50 PM,87.8,71.6,58,30.15,10.0,SE,15.0,-,N/A,Thunderstorm,Thunderstorm,130,2013-07-16 21:50:00
4:56 PM,86.0,72.0,63,30.14,10.0,SE,17.3,23.0,N/A,Thunderstorm,Thunderstorm,140,2013-07-16 21:56:00
5:45 PM,87.8,69.8,55,30.15,10.0,ESE,13.8,-,N/A,,Scattered Clouds,120,2013-07-16 22:45:00
5:56 PM,84.9,69.1,59,30.14,10.0,ESE,11.5,-,N/A,,Scattered Clouds,110,2013-07-16 22:56:00
6:56 PM,82.9,69.1,63,30.15,10.0,ESE,13.8,-,N/A,,Mostly Cloudy,120,2013-07-16 23:56:00
7:56 PM,81.0,70.0,69,30.17,10.0,SE,8.1,-,N/A,,Mostly Cloudy,130,2013-07-17 00:56:00
8:56 PM,80.1,71.1,74,30.18,10.0,ESE,6.9,-,N/A,,Scattered Clouds,110,2013-07-17 01:56:00
9:56 PM,79.0,72.0,79,30.19,10.0,East,3.5,-,N/A,,Scattered Clouds,90,2013-07-17 02:56:00
10:56 PM,77.0,72.0,84,30.19,10.0,NNE,3.5,-,N/A,,Scattered Clouds,30,2013-07-17 03:56:00
11:56 PM,75.0,71.1,87,30.20,10.0,NE,3.5,-,N/A,,Clear,40,2013-07-17 04:56:00